HOECHSTEN Weather Reports


Display with metric or nautical units.
time (UTC)temp
F
wind
direction
speed
MPH
gust
MPH
rain 1hr
in
rain 24hr
in
rain mn
in
humidity
%
barometer
mb
20260506090211 53 56 5.0 0.0 0.00 0.00 0.00 76 1003.5
20260506083211 54 232 5.0 0.0 0.00 0.00 0.00 75 1003.5
20260506080212 53 334 3.0 0.0 0.00 0.00 0.00 75 1003.3
20260506073211 53 235 3.0 0.0 0.00 0.00 0.00 75 1003.4
20260506070212 51 244 4.0 0.0 0.00 0.00 0.00 75 1003.4
20260506060210 50 213 7.0 0.0 0.00 0.00 0.00 74 1003.3
20260506050211 49 233 4.0 0.0 0.00 0.00 0.00 72 1003.6
20260506043211 48 227 7.0 0.0 0.00 0.00 0.00 71 1003.7
20260506040211 48 242 4.0 0.0 0.00 0.00 0.00 69 1004.1
20260506033211 48 248 3.0 0.0 0.00 0.00 0.00 69 1004.4
20260506030212 48 214 8.0 0.0 0.00 0.00 0.00 70 1004.8
20260506023211 48 194 7.0 0.0 0.00 0.00 0.00 72 1004.7
20260506020212 49 217 11.0 0.0 0.00 0.00 0.00 72 1004.9
20260506013211 49 221 10.0 0.0 0.00 0.00 0.00 70 1005.1
20260506010212 49 223 9.0 0.0 0.00 0.00 0.00 67 1005.4
20260506003209 48 209 9.0 0.0 0.00 0.00 0.00 68 1005.7
20260506000211 48 224 6.0 0.0 0.00 0.00 0.00 69 1005.5
20260505233209 49 197 9.0 0.0 0.00 0.00 0.00 70 1005.8
20260505230209 49 196 8.0 0.0 0.00 0.00 0.00 70 1006.0
20260505223210 49 204 8.0 0.0 0.00 0.00 0.00 72 1006.0
20260505213211 49 207 10.0 0.0 0.00 0.00 0.00 74 1006.0
20260505210215 50 258 11.0 0.0 0.00 0.00 0.00 76 1006.2
20260505203209 50 196 11.0 0.0 0.00 0.00 0.00 77 1006.2
20260505200210 51 187 11.0 0.0 0.00 0.00 0.00 77 1005.9
20260505193209 51 238 18.0 0.0 0.00 0.00 0.00 77 1005.7
20260505190215 51 211 20.0 0.0 0.00 0.00 0.00 77 1005.3
20260505183212 53 191 14.0 0.0 0.00 0.00 0.00 78 1004.9
20260505180211 55 199 15.0 0.0 0.00 0.00 0.00 77 1004.7
20260505173210 56 154 16.0 0.0 0.00 0.00 0.00 76 1004.5
20260505170210 57 211 12.0 0.0 0.00 0.00 0.00 73 1004.3
20260505163211 60 238 11.0 0.0 0.00 0.00 0.00 71 1004.1
20260505153210 59 80 3.0 0.0 0.00 0.00 0.00 74 1004.0
20260505150215 58 50 4.0 0.0 0.00 0.00 0.00 75 1003.8
20260505140210 58 9 4.0 0.0 0.00 0.00 0.00 71 1004.1
20260505130210 55 9 8.0 0.0 0.00 0.00 0.00 77 1004.3
20260505123210 55 28 15.0 0.0 0.00 0.00 0.00 76 1004.2
20260505120210 54 346 13.0 0.0 0.00 0.00 0.00 76 1004.3
20260505113210 54 253 4.0 0.0 0.00 0.00 0.00 75 1004.6
20260505110211 55 200 10.0 0.0 0.00 0.00 0.00 77 1004.6
20260505100212 54 244 3.0 0.0 0.00 0.00 0.00 77 1004.4
20260505093212 53 232 6.0 0.0 0.00 0.00 0.00 76 1004.6